AO-07 1 07530U 74089B 25340.98852411 -.00000040 00000-0 39155-4 0 9997 2 07530 101.9966 347.1958 0012341 137.4710 278.6430 12.53694057336431 UO-11 1 14781U 84021B 25340.88419723 .00002776 00000-0 29255-3 0 9990 2 14781 97.7805 304.0038 0009233 98.1399 262.0866 14.90111371228485 AO-27 1 22825U 93061C 25340.91497828 .00000278 00000-0 12314-3 0 9991 2 22825 98.7154 43.1682 0007498 308.9896 51.0618 14.30873459679502 FO-29 1 24278U 96046B 25340.93199318 .00000036 00000-0 74652-4 0 9992 2 24278 98.5467 210.8467 0348996 235.0746 121.7145 13.53262361447163 GO-32 1 25397U 98043D 25340.94663299 .00000187 00000-0 10089-3 0 9999 2 25397 98.9913 324.0252 0002182 66.7011 293.4397 14.24374547423961 ISS 1 25544U 98067A 25340.86543100 .00013750 00000-0 25394-3 0 9993 2 25544 51.6304 171.5636 0003497 213.1314 146.9456 15.49374779541942 NO-44 1 26931U 01043C 25340.86876421 .00000379 00000-0 17258-3 0 9990 2 26931 67.0519 21.6616 0007408 270.3197 89.7056 14.31849848262916 SO-50 1 27607U 02058C 25340.80126021 .00003500 00000-0 43506-3 0 9990 2 27607 64.5544 3.9529 0071932 297.6994 61.6826 14.82351710235931 CO-55 1 27844U 03031E 25340.96954269 .00000676 00000-0 31252-3 0 9991 2 27844 98.6763 346.9469 0010079 29.5125 330.6621 14.24171667164313 CO-57 1 27848U 03031J 25340.93325621 .00000562 00000-0 26622-3 0 9995 2 27848 98.6794 346.7779 0010278 46.5370 313.6662 14.23480822164024 RS-22 1 27939U 03042A 25340.95474535 .00002607 00000-0 41425-3 0 9999 2 27939 98.3366 155.0015 0011808 153.2103 7.6470 14.72945636187240 CO-58 1 28895U 05043F 25340.86721053 .00003376 00000-0 54679-3 0 9993 2 28895 98.2723 127.8461 0015394 95.5944 264.7018 14.71863615 73451 CO-65 1 32785U 08021C 25340.92843077 .00010021 00000-0 67371-3 0 9991 2 32785 97.8087 313.9344 0008491 334.3258 25.7546 15.06936498956216 CO-66 1 32791U 08021J 25340.93294875 .00026249 00000-0 10536-2 0 9994 2 32791 97.7438 325.8794 0000931 275.6609 84.4522 15.24956151957913 RS-30 1 32953U 08025A 25340.91613141 .00000017 00000-0 47789-4 0 9994 2 32953 82.5013 115.0447 0019149 13.7226 346.4370 12.43171781795801 SRMSAT 1 37841U 11058D 25340.79556374 .00000548 00000-0 15346-3 0 9997 2 37841 19.9699 143.9277 0011716 247.4073 156.7228 14.11508393730606 ZACUBE-1 1 39417U 13066B 25340.85104808 .00008434 00000-0 68827-3 0 9991 2 39417 97.8074 297.3865 0041567 165.7322 194.5085 14.99001759651896 Delfi-N3xt 1 39428U 13066N 25340.77146465 .00012859 00000-0 12050-2 0 9991 2 39428 97.8342 256.7081 0080690 124.8040 236.0806 14.91686390645908 GOMX-1 1 39430U 13066Q 25340.83775253 .00004332 00000-0 66414-3 0 9995 2 39430 97.6594 188.3324 0130099 335.6110 23.8975 14.68541463641671 LO-74 1 39440U 13066AA 25340.83711126 .00009373 00000-0 90262-3 0 9993 2 39440 97.8703 284.5161 0058626 305.8244 53.7536 14.91872521648294 AO-73 1 39444U 13066AE 25340.87402311 .00013472 00000-0 91562-3 0 9993 2 39444 97.8053 304.0814 0040280 134.8342 225.6170 15.05808706650685 DTUSAT-2 1 40030U 14033W 25340.91082523 .00013545 00000-0 80056-3 0 9992 2 40030 98.0751 322.0490 0008718 158.7760 201.3832 15.11586863623607 EO-80 1 40032U 14033Y 25340.92178735 .00012854 00000-0 75825-3 0 9996 2 40032 98.0633 321.4626 0009705 105.5287 254.7014 15.11662630623581 LILACSAT-2 1 40908U 15049K 25340.84082756 .00024414 00000-0 52795-3 0 9990 2 40908 97.4912 6.0424 0006639 221.5395 138.5349 15.44463951565991 IO-86 1 40931U 15052B 25151.18580175 .00001241 00000-0 78118-4 0 9996 2 40931 6.0006 24.0987 0012733 338.8432 21.1169 14.78805930523159 Horyu-4 1 41340U 16012D 25340.37349146 .00075721 00000-0 13012-2 0 9994 2 41340 30.9953 353.6635 0006694 172.2657 187.8097 15.49767084540560 Lapan A3 1 41603U 16040E 25340.94513436 .00006176 00000-0 20527-3 0 9993 2 41603 97.1423 338.7123 0010374 355.6302 4.4848 15.31482063525371 CAS-2T 1 41847U 16066G 25340.80320262 .00002015 00000-0 29303-3 0 9998 2 41847 98.4041 53.6012 0343692 353.1615 6.4948 14.44110343477026 TechnoSat 1 42829U 17042E 25340.93784630 .00006929 00000-0 51259-3 0 9994 2 42829 97.4029 141.3944 0018706 31.9311 328.3044 15.03337034457801 AO-91 1 43017U 17073E 25340.87477298 .00017205 00000-0 81576-3 0 9994 2 43017 97.4944 207.2043 0159872 270.7789 87.5125 15.08672133436359 S-Net D 1 43186U 18014G 25340.67473722 .00011457 00000-0 62954-3 0 9995 2 43186 97.5491 241.8118 0007991 337.1029 22.9845 15.14238856429609 S-Net B 1 43187U 18014H 25340.68269773 .00011481 00000-0 63124-3 0 9993 2 43187 97.5496 241.7996 0008518 330.7712 29.3042 15.14213514429606 S-Net A 1 43188U 18014J 25340.67447082 .00011385 00000-0 62547-3 0 9995 2 43188 97.5506 241.9668 0008409 332.0179 28.0600 15.14245074429600 S-Net C 1 43189U 18014K 25340.68564321 .00011741 00000-0 64536-3 0 9999 2 43189 97.5518 242.0226 0009653 322.3098 37.7456 15.14209034428151 Ten-Koh 1 43677U 18084G 25340.84834060 .00005554 00000-0 43108-3 0 9993 2 43677 98.0734 160.2298 0009408 39.7382 320.4529 15.01759206387280 PO-101 1 43678U 18084H 25340.91295240 .00004169 00000-0 34566-3 0 9992 2 43678 98.1022 164.1418 0007509 60.4694 299.7275 14.99389135387390 QO-100 1 43700U 18090A 25340.90461594 .00000150 00000-0 00000-0 0 9990 2 43700 0.0137 38.1907 0001529 230.2571 158.9740 1.00274123 25744 MinXSS-2 1 43758U 18099A 25340.75512618 .00039987 00000-0 12088-2 0 9990 2 43758 97.4806 48.0406 0008880 235.0841 124.9568 15.34074106384508 AO-95 1 43770U 18099N 25340.87498948 .00018021 00000-0 79791-3 0 9997 2 43770 97.4683 37.2017 0008557 309.8112 50.2370 15.21674112383921 SNUSat 2 1 43782U 18099AA 25340.66094523 .00015210 00000-0 74720-3 0 9992 2 43782 97.4358 32.1724 0009742 246.1428 113.8785 15.18107974383785 SnugLite 1 43784U 18099AC 25340.86363793 .00018388 00000-0 80558-3 0 9999 2 43784 97.4169 32.3979 0001844 226.8628 133.2454 15.22061989384019 ITASat 1 1 43786U 18099AE 25340.88950548 .00012660 00000-0 66196-3 0 9992 2 43786 97.4329 31.3233 0012217 306.1854 53.8248 15.15935801383742 EAGLET 1 1 43790U 18099AJ 25340.87745230 .00008153 00000-0 49085-3 0 9996 2 43790 97.4525 30.5658 0010042 293.2147 66.8025 15.11027672383271 ESEO 1 43792U 18099AL 25340.82485281 .00002937 00000-0 21976-3 0 9993 2 43792 97.4234 21.2521 0010507 270.3060 89.6963 15.03444080382890 JO-97 1 43803U 18099AX 25340.72012307 .00027274 00000-0 10427-2 0 9999 2 43803 97.4424 38.5564 0005628 226.1365 133.9410 15.26557427384197 Suomi 100 1 43804U 18099AY 25340.80882207 .00021729 00000-0 92181-3 0 9990 2 43804 97.4488 37.3161 0009905 234.4841 125.5472 15.23079968384080 ISAT 1 43879U 18111D 25340.76483049 .00059183 00000-0 14189-2 0 9999 2 43879 97.5913 260.2260 0003694 293.3185 66.7672 15.41193034381320 UWE-4 1 43880U 18111E 25340.76326469 .00039243 00000-0 11903-2 0 9999 2 43880 97.5859 257.1235 0007957 305.9709 54.0795 15.33981596381163 Sparrow 1 43881U 18111F 25340.82290895 .00063288 00000-0 14091-2 0 9997 2 43881 97.6098 264.0054 0004244 355.2614 4.8592 15.43394717381459 Prox-1 1 44339U 19036A 25340.59334022 .00020600 00000-0 23269-2 0 9996 2 44339 23.9972 315.4707 0006273 330.4708 29.5435 14.84945457344759 Taurus 1 1 44530U 19059C 25340.91379890 .00013364 00000-0 22834-2 0 9998 2 44530 98.6230 129.4468 0009088 192.1173 167.9814 14.69003561330387 Duchifat 3 1 44854U 19089C 25337.20011490 .01105376 61298-3 19590-2 0 9997 2 44854 36.9264 289.0060 0011659 216.1192 143.8795 16.00863037330610 TO-108 1 44881U 19093C 25340.90998540 .00001860 00000-0 21825-3 0 9991 2 44881 97.7766 52.6720 0013727 5.5412 354.5953 14.86083109322852 FloripaSat 1 1 44885U 19093G 25340.91155952 .00010773 00000-0 84370-3 0 9995 2 44885 97.8055 69.0774 0011015 356.0640 4.0496 15.01147813323776 RS-44 1 44909U 19096E 25340.83774749 .00000020 00000-0 39903-4 0 9994 2 44909 82.5204 107.5302 0216844 233.9304 124.1541 12.79745862277742 SALSAT 1 46495U 20068K 25340.95890522 .00012794 00000-0 49717-3 0 9992 2 46495 97.8780 327.9198 0008645 253.9020 106.1265 15.26175245286007 CSS (TIANHE-1) 1 48274U 21035A 25340.88512792 .00027906 00000-0 35334-3 0 9997 2 48274 41.4683 52.2413 0009453 344.5349 15.5199 15.58811356263119 TUBIN 1 48900U 21059X 25340.69616727 .00838377 37435-3 11149-2 0 9995 2 48900 97.6690 168.2010 0003700 277.4909 82.5952 16.06761960248351 CUTE 1 49263U 21088D 25340.93164912 .00036624 00000-0 48678-3 0 9999 2 49263 97.4359 63.5230 0004474 297.2896 62.7904 15.58108206232397 TeikyoSat 4 1 49396U 21102B 25340.89793182 .00004018 00000-0 26052-3 0 9999 2 49396 97.3903 12.7170 0010919 229.8879 130.1394 15.08604287223725 Z-Sat 1 49399U 21102E 25340.90422444 .00007641 00000-0 39578-3 0 9996 2 49399 97.3584 17.0232 0016828 192.4336 167.6485 15.16351637224283 KOSEN 1 1 49402U 21102H 25340.92344824 .00013276 00000-0 55750-3 0 9999 2 49402 97.3474 21.9351 0015177 160.3724 199.8101 15.23469644224719 HO-113 1 50466U 21131B 25340.95675953 .00001167 00000-0 37603-3 0 9999 2 50466 98.5061 69.4076 0003361 327.6155 32.4827 14.41100359207425 SNUGLITE 2 1 52899U 22065F 25340.92368538 .00002497 00000-0 48753-3 0 9998 2 52899 98.1925 121.4896 0006394 266.6999 93.3472 14.63810208182865 UmKA 1 (RS40S) 1 57172U 23091G 25340.94184468 .00010101 00000-0 49769-3 0 9996 2 57172 97.5346 35.4319 0015065 71.8043 288.4829 15.18051925134818 CubeBel-2 (EU11S) 1 57175U 23091K 25340.94278999 .00020741 00000-0 86107-3 0 9990 2 57175 97.5343 37.8686 0012354 74.6243 285.6358 15.23796816134976 RS-38S 1 57189U 23091Z 25340.94777326 .00024062 00000-0 85173-3 0 9995 2 57189 97.5369 42.2750 0009188 42.0489 318.1455 15.29097859135241 SONATE-2 1 59112U 24043Q 25340.95287712 .00038342 00000-0 82168-3 0 9994 2 59112 97.5332 116.9902 0008953 182.7786 177.3414 15.44619271 98083 MO-122 1 60209U 24125G 25340.83363316 .00048625 00000-0 99983-3 0 9994 2 60209 97.2522 191.2032 0013728 200.8099 159.2593 15.45723981 79693 GRBBeta 1 60237U 24128C 25340.90349085 .00007375 00000-0 51816-3 0 9993 2 60237 61.9884 169.9716 0056519 95.5281 265.2261 15.04663578 77318 Curium One 1 60242U 24128H 25340.89741557 .00013742 00000-0 85185-3 0 9998 2 60242 61.9776 165.0071 0056203 92.4745 268.2785 15.08722336 77402 ROBUSTA-3A 1 60243U 24128J 25340.89820335 .00010131 00000-0 64317-3 0 9994 2 60243 61.9852 166.5110 0056304 89.9451 270.8094 15.08087367 77382 CatSat 1 60246U 24125J 25340.82765194 .00058339 00000-0 14296-2 0 9990 2 60246 97.2316 188.2779 0033924 165.5853 194.6369 15.39934796 77619 HYPERVIEW-1G (RS66S) 1 61772U 24199AP 25340.92313323 .00059129 00000-0 11575-2 0 9995 2 61772 97.3211 210.2877 0008057 264.7666 95.2664 15.47176397104717 AO-123 1 61781U 24199AY 25340.92424596 .00016305 00000-0 53224-3 0 9997 2 61781 97.3250 206.4382 0013000 279.4514 80.5259 15.31764300104455 ZIMSAT 2 1 61783U 24199BA 25340.81025322 .00253078 00000-0 20235-2 0 9996 2 61783 97.3095 213.4895 0002887 234.9156 125.1836 15.70323188108077 HADES-R (SO-124) 1 62690U 25009CK 25340.66415054 .00227644 00000-0 31283-2 0 9998 2 62690 97.3890 63.0610 0001543 233.5190 126.5923 15.56512027 49839 HYDRA-T 1 62692U 25009CM 25340.84184356 .00217514 00000-0 28174-2 0 9998 2 62692 97.3887 63.4325 0001509 244.2946 115.8154 15.58142316 49877 JINJUSat 1B 1 63210U 25052A 25340.95163048 .00023942 00000-0 91994-3 0 9991 2 63210 97.4202 233.1437 0005859 59.9478 300.2341 15.26415224 40706 NUSHSAT 1 1 63211U 25052B 25340.68881122 .00031754 00000-0 11819-2 0 9999 2 63211 97.4186 232.9959 0005972 62.4571 297.7275 15.27410108 40672 TEVEL2-4 1 63213U 25052D 25340.62151249 .00029929 00000-0 11367-2 0 9994 2 63213 97.4108 232.4940 0005296 74.9279 285.2546 15.26757838 40659 TEVEL2-5 1 63214U 25052E 25340.62667781 .00029138 00000-0 11093-2 0 9996 2 63214 97.4102 232.4874 0005189 75.1365 285.0448 15.26685082 40650 TEVEL2-6 1 63215U 25052F 25340.96152014 .00026051 00000-0 99333-3 0 9997 2 63215 97.4106 232.8083 0005401 75.1047 285.0789 15.26654396 40703 TEVEL2-1 1 63217U 25052H 25340.67518121 .00029775 00000-0 11459-2 0 9990 2 63217 97.4083 232.3400 0005400 84.0441 276.1413 15.26319716 40656 TEVEL2-3 1 63218U 25052J 25340.93670166 .00025396 00000-0 97743-3 0 9994 2 63218 97.4083 232.6047 0005354 84.1789 276.0060 15.26349702 40690 TEVEL2-2 1 63219U 25052K 25340.93819218 .00025833 00000-0 99470-3 0 9993 2 63219 97.4080 232.6014 0005400 84.2635 275.9220 15.26330991 40691 TEVEL2-9 1 63237U 25052AD 25340.96118687 .00024282 00000-0 97691-3 0 9998 2 63237 97.4143 232.3389 0009209 97.4585 262.7699 15.24851536 40666 TEVEL2-7 1 63238U 25052AE 25340.64639138 .00027815 00000-0 11234-2 0 9996 2 63238 97.4149 232.0021 0009290 98.6358 261.5932 15.24692161 40613 TEVEL2-8 1 63239U 25052AF 25340.65192583 .00027107 00000-0 10959-2 0 9993 2 63239 97.4145 231.9929 0009241 99.3572 260.8711 15.24663872 40611 HYDRA-W 1 63490U 25052BL 25340.66216438 .00103764 00000-0 25456-2 0 9991 2 63490 97.4066 234.3600 0011543 86.8489 273.4077 15.40242282 40780 HADES-ICM (SO-125) 1 63492U 25052BN 25340.64950731 .00092290 00000-0 24065-2 0 9998 2 63492 97.4074 234.0951 0011665 89.8723 270.3859 15.38421092 40763 Dragonfly 1 65729U 98067XH 25340.75777803 .00197078 00000-0 16006-2 0 9994 2 65729 51.6244 166.3400 0006464 240.1975 119.8380 15.69539731 12227 RSP-03 1 65732U 98067XL 25340.81065716 .00155052 00000-0 14177-2 0 9991 2 65732 51.6255 166.6987 0006436 212.9717 147.0878 15.66782346 12231 GHS-01 1 65733U 98067XM 25340.78287372 .00237688 00000-0 17414-2 0 9995 2 65733 51.6272 165.7632 0006899 241.1920 118.8385 15.71874043 12243 BOTAN 1 65942U 98067XP 25340.76859027 .00129965 00000-0 14806-2 0 9997 2 65942 51.6270 169.4226 0003982 191.5132 168.5771 15.61316825 8936 SPIRONE 1 66657U 25274H 25340.77714823 .00004929 00000-0 48630-3 0 9991 2 66657 97.7389 268.0859 0010959 298.7939 61.2179 14.92399421 1511 K-HERO 1 66660U 25274L 25340.77369599 .00004743 00000-0 46204-3 0 9990 2 66660 97.7397 268.0907 0012930 303.6775 56.3211 14.92907232 1510 CEVROSAT1 1 98526U 25248E 25313.13142326 .00000000 00000-0 19360-3 0 02 2 98526 45.4084 218.4764 0001315 254.8982 242.1062 15.17981583 02